{"data":{"norad_id":67841,"intl_designator":"2026-033W","name":"STARLINK-36656","alt_names":[],"object_type":"PAYLOAD","status":"ACTIVE","operator":null,"country":"US","launch_date":"2026-02-16","launch_site_code":"AFETR","launch_vehicle":null,"mission":null,"orbit_class":"UNKNOWN","rcs_meters":null,"size_class":null,"mass_kg":null,"dimensions":null,"purposes":["comms"],"wikipedia_slug":null,"has_3d_model":false,"image_url":null,"decayed_at":null,"tle_current":{"epoch":"2026-05-25T04:26:09.557376Z","epoch_age_seconds":69814,"freshness":"FRESH","line1":"1 67841U 26033W   26145.18483284  .00015984  00000+0  58884-3 0  9998","line2":"2 67841  43.0048 194.9853 0002503 275.7617  84.2949 15.27593776 16376","mean_motion":15.27593776,"eccentricity":0.0002503,"inclination_deg":43.0048,"raan_deg":194.9853,"arg_perigee_deg":275.7617,"mean_anomaly_deg":84.2949,"bstar":0.00058884,"rev_number":1637,"period_min":94.26589860628,"perigee_km":481.2905014948,"apogee_km":484.72519060473,"semimajor_km":6861.1448460498,"source":"CELESTRAK","updated_at":"2026-05-25T13:38:21.701722Z"}}}